User: anonymous   Login
Location: Whitehorse
(60.7170°N, 135.0500°W)
Time: 03:06:10
(UTC-07:00)
Language:

Cosmos 2219 Rocket - Orbit

View from above orbital plane
View from above orbital plane
View from above satellite
View from above satellite

Ground track
Ground track

The orbit data is extracted from the following two-line orbital elements,

1 22220U 92076B   16205.94962319 +.00000081 +00000-0 +64833-4 0  9996
2 22220 070.9998 030.1625 0011249 046.6002 103.3067 14.16398543223960
Epoch (UTC): 23 July 2016 22:47:27
Eccentricity: 0.0011249
inclination: 70.9998°
perigee height: 829 km
apogee height: 845 km
right ascension of ascending node: 30.1625°
argument of perigee: 46.6002°
revolutions per day: 14.16398543
mean anomaly at epoch: 103.3067°
orbit number at epoch: 22396

The dashed part of the orbit path shows where the satellite is in the earth's shadow,  

DLR